Location: B�rgermoos
(47.6500°N, 9.0667°E)
Time: 16:28:10
(UTC+00:00)

Vanguard 1 - Pass Details

Date: 01 August 2021
Orbit: 652 x 3831 km, 34.3° (Epoch: 17 September)

Event Time Altitude Azimuth Distance (km) Brightness Sun altitude
Rises 13:10:06 0° 255° (WSW) 3,593 13.4 53.9°
Reaches altitude 10° 13:12:35 10° 243° (WSW) 2,907 13.2 53.6°
Maximum altitude 13:18:40 30° 184° (S) 2,412 13.0 52.9°
Drops below altitude 10° 13:28:25 10° 131° (SE) 4,758 13.6 51.7°
Sets 13:33:53 0° 123° (ESE) 6,343 14.1 51.0°
